Terug naar catalogus

THORAD AGENA D DEB

ActiefSSO
NORAD 4987·DEBRIS·🇺🇸 United States

Gelanceerd Apr 8, 1970 vanaf Vandenberg Space Force Base

Loading…

Volgende Passages

TLE

Source: Space-Track
1 04987U 70025HH  26218.74866091  .00000003  00000-0  73043-4 0  9996
2 04987  99.6235 144.9581 0039254 358.4894  57.0342 13.49134856769894

Volg THORAD AGENA D DEB in realtime met AllMySat

Download on the App Store